Date String (YYYY-MM-DD hh:mm:ss) UTC,Instrument flags,Ambient pressure (hPa),Sample flow (lpm),Bypass flow (lpm),Sample temperature (°C),Ambient temperature (°C),ASC tube jacket temperature (°C),LED temperature (°C),Box temperature (°C),Sample RH (%),Span deviation,Mass concentration (μg/m³),Mass concentration (μg/m³),Mass concentration (μg/m³)
DateTimeUTC,F1_M11,P_M11,Q1_M11,Q2_M11,T1_M11,T2_M11,T3_M11,T4_M11,T5_M11,U1_M11,ZSPAN_M11,X0_M11,X2_M11,X1_M11
2023-01-03 14:00:00,,0816.4,4.98,0.00,22.4,21.8,00.0,31.1,24.2,10.9,0000.0,0001.23,0000.98,0000.93
2023-01-03 14:01:00,,0816.4,4.99,0.00,22.3,21.4,00.0,31.1,24.0,10.9,0000.0,0001.23,0000.98,0000.93
2023-01-03 14:02:00,,0816.4,4.97,0.00,22.3,21.2,00.0,31.1,24.0,10.9,0000.0,0001.19,0000.99,0000.94
2023-01-03 14:03:00,,0816.4,5.03,0.00,22.3,20.9,00.0,31.1,23.9,10.9,0000.0,0001.13,0000.99,0000.94
2023-01-03 14:04:00,,0816.4,4.99,0.00,22.3,20.8,00.0,31.1,23.9,10.9,0000.0,0001.17,0001.00,0000.94
2023-01-03 14:05:00,,0816.4,4.99,0.00,22.2,20.7,00.0,31.1,23.9,10.9,0000.0,0002.21,0001.01,0000.94
2023-01-03 14:06:00,,0816.4,5.00,0.00,22.2,20.6,00.0,31.1,23.8,10.9,0000.0,0002.31,0001.01,0000.93
2023-01-03 14:07:00,,0816.5,5.02,0.00,22.1,20.5,00.0,31.1,23.8,10.9,0000.0,0002.34,0001.01,0000.92
2023-01-03 14:08:00,,0816.4,5.00,0.00,22.1,20.6,00.0,31.1,23.8,10.9,0000.0,0002.35,0001.02,0000.93
2023-01-03 14:09:00,,0816.4,4.99,0.00,22.2,21.4,00.0,31.0,24.0,10.9,0000.0,0002.36,0001.02,0000.92
2023-01-03 14:10:00,,0816.4,5.00,0.00,22.3,22.4,00.0,31.0,24.2,10.8,0000.0,0002.36,0001.01,0000.92
2023-01-03 14:11:00,,0816.4,4.99,0.00,22.4,22.9,00.0,31.1,24.4,10.7,0000.0,0002.34,0001.01,0000.92
2023-01-03 14:12:00,,0816.7,4.96,0.00,22.5,22.6,00.0,31.1,24.4,10.6,0000.0,0002.32,0001.01,0000.93
2023-01-03 14:13:00,,0816.5,4.98,0.00,22.5,22.2,00.0,31.2,24.3,10.6,0000.0,0002.26,0000.99,0000.93
2023-01-03 14:14:00,,0816.6,5.08,0.00,22.5,21.8,00.0,31.2,24.2,10.5,0000.0,0002.25,0000.99,0000.93
2023-01-03 14:15:00,,0816.4,5.00,0.00,22.4,21.6,00.0,31.2,24.2,10.4,0000.0,0002.32,0001.00,0000.93
2023-01-03 14:16:00,,0816.5,4.95,0.00,22.4,21.4,00.0,31.2,24.1,10.3,0000.0,0001.36,0000.99,0000.94
2023-01-03 14:17:00,,0816.5,5.03,0.00,22.4,21.2,00.0,31.2,24.1,10.3,0000.0,0001.22,0000.99,0000.94
2023-01-03 14:18:00,,0816.6,4.99,0.00,22.4,21.1,00.0,31.2,24.1,10.4,0000.0,0001.22,0001.00,0000.96
2023-01-03 14:19:00,,0816.5,4.99,0.00,22.4,21.0,00.0,31.2,24.0,10.5,0000.0,0001.27,0001.02,0000.97
2023-01-03 14:20:00,,0816.5,4.95,0.00,22.3,21.0,00.0,31.2,24.0,10.5,0000.0,0001.36,0001.04,0000.99
2023-01-03 14:21:00,,0816.4,5.02,0.00,22.3,20.9,00.0,31.2,23.9,10.5,0000.0,0001.93,0001.08,0001.02
2023-01-03 14:22:00,,0816.4,5.04,0.00,22.3,20.8,00.0,31.2,23.9,10.5,0000.0,0002.21,0001.12,0001.05
2023-01-03 14:23:00,,0816.4,4.98,0.00,22.3,20.7,00.0,31.2,23.9,10.5,0000.0,0002.23,0001.15,0001.07
2023-01-03 14:24:00,,0816.5,5.02,0.00,22.2,21.0,00.0,31.1,24.0,10.5,0000.0,0002.25,0001.17,0001.10
2023-01-03 14:25:00,,0816.4,5.00,0.00,22.3,21.9,00.0,31.1,24.2,10.6,0000.0,0002.36,0001.22,0001.13
2023-01-03 14:26:00,,0816.5,5.00,0.00,22.5,22.9,00.0,31.1,24.5,10.5,0000.0,0002.34,0001.25,0001.15
2023-01-03 14:27:00,,0816.6,4.99,0.00,22.6,22.9,00.0,31.2,24.6,10.5,0000.0,0002.68,0001.28,0001.18
2023-01-03 14:28:00,,0816.4,4.98,0.00,22.4,22.4,00.0,31.2,24.3,10.6,0000.0,0004.11,0001.33,0001.21
2023-01-03 14:29:00,,0816.4,5.01,0.00,22.6,22.0,00.0,31.3,24.4,10.6,0000.0,0004.94,0001.37,0001.22
2023-01-03 14:30:00,,0816.4,5.01,0.00,22.6,21.7,00.0,31.3,24.3,10.7,0000.0,0005.15,0001.39,0001.23
2023-01-03 14:31:00,,0816.4,4.99,0.00,22.5,21.5,00.0,31.3,24.2,10.8,0000.0,0005.10,0001.39,0001.24
2023-01-03 14:32:00,,0816.4,4.99,0.00,22.5,21.3,00.0,31.3,24.2,10.9,0000.0,0004.83,0001.40,0001.25
2023-01-03 14:33:00,,0816.4,4.99,0.00,22.5,21.2,00.0,31.3,24.2,11.0,0000.0,0004.49,0001.39,0001.25
2023-01-03 14:34:00,,0816.4,5.01,0.00,22.4,21.1,00.0,31.3,24.1,11.1,0000.0,0004.48,0001.38,0001.25
2023-01-03 14:35:00,,0816.5,5.01,0.00,22.4,20.9,00.0,31.3,24.1,11.2,0000.0,0004.51,0001.40,0001.25
2023-01-03 14:36:00,,0816.4,5.00,0.00,22.4,20.9,00.0,31.3,24.1,11.2,0000.0,0004.46,0001.39,0001.25
2023-01-03 14:37:00,,0816.4,5.00,0.00,22.4,20.8,00.0,31.3,24.0,11.3,0000.0,0004.49,0001.40,0001.26
2023-01-03 14:38:00,,0816.4,5.00,0.00,22.3,20.8,00.0,31.3,24.0,11.3,0000.0,0004.03,0001.38,0001.26
2023-01-03 14:39:00,,0816.4,5.01,0.00,22.3,21.2,00.0,31.2,24.1,11.4,0000.0,0003.16,0001.36,0001.25
2023-01-03 14:40:00,,0816.4,5.01,0.00,22.4,22.1,00.0,31.2,24.3,11.4,0000.0,0002.57,0001.34,0001.23
2023-01-03 14:41:00,,0816.4,4.97,0.00,22.6,23.0,00.0,31.2,24.6,11.3,0000.0,0002.34,0001.32,0001.21
2023-01-03 14:42:00,,0816.4,5.03,0.00,22.6,22.9,00.0,31.3,24.6,11.3,0000.0,0002.31,0001.30,0001.19
2023-01-03 14:43:00,,0816.4,4.97,0.00,22.6,22.5,00.0,31.3,24.5,11.4,0000.0,0002.14,0001.27,0001.17
2023-01-03 14:44:00,,0816.4,5.02,0.00,22.6,22.1,00.0,31.4,24.4,11.4,0000.0,0002.14,0001.29,0001.17
2023-01-03 14:45:00,,0816.4,4.97,0.00,22.6,21.7,00.0,31.4,24.3,11.4,0000.0,0002.18,0001.30,0001.16
2023-01-03 14:46:00,,0816.4,4.97,0.00,22.6,21.5,00.0,31.4,24.3,11.4,0000.0,0002.34,0001.28,0001.15
2023-01-03 14:47:00,,0816.4,5.01,0.00,22.5,21.3,00.0,31.4,24.2,11.5,0000.0,0002.47,0001.27,0001.14
2023-01-03 14:48:00,,0816.4,5.05,0.00,22.5,21.1,00.0,31.4,24.2,11.5,0000.0,0002.46,0001.26,0001.12
2023-01-03 14:49:00,,0816.4,4.97,0.00,22.5,21.0,00.0,31.4,24.1,11.6,0000.0,0002.45,0001.25,0001.11
2023-01-03 14:50:00,,0816.4,5.02,0.00,22.4,20.9,00.0,31.4,24.1,11.6,0000.0,0001.88,0001.23,0001.11
2023-01-03 14:51:00,,0816.4,5.01,0.00,22.4,20.8,00.0,31.3,24.0,11.7,0000.0,0001.72,0001.23,0001.12
2023-01-03 14:52:00,,0816.4,4.99,0.00,22.4,20.7,00.0,31.3,24.0,11.7,0000.0,0001.75,0001.24,0001.14
2023-01-03 14:53:00,,0816.4,5.00,0.00,22.3,20.6,00.0,31.3,23.9,11.7,0000.0,0001.76,0001.26,0001.16
2023-01-03 14:54:00,,0816.4,5.01,0.00,22.3,21.2,00.0,31.3,24.0,11.8,0000.0,0001.75,0001.26,0001.17
2023-01-03 14:55:00,,0816.4,5.01,0.00,22.5,22.4,00.0,31.2,24.4,11.7,0000.0,0001.71,0001.24,0001.17
2023-01-03 14:56:00,,0816.4,5.02,0.00,22.6,22.9,00.0,31.3,24.5,11.6,0000.0,0001.66,0001.21,0001.16
2023-01-03 14:57:00,,0816.4,4.99,0.00,22.6,22.4,00.0,31.3,24.5,11.6,0000.0,0001.47,0001.20,0001.16
2023-01-03 14:58:00,,0816.4,4.97,0.00,22.6,22.0,00.0,31.3,24.4,11.5,0000.0,0001.33,0001.21,0001.17
2023-01-03 14:59:00,,0816.4,5.00,0.00,22.6,21.6,00.0,31.4,24.3,11.5,0000.0,0001.32,0001.21,0001.18
